Total_Precipitation_Accumulation
1.85 1.87 1.87 1.70 1.57 1.50 1.53 1.74 2.07 1.84 1.20 0.90 0.92 0.99 1.10 1.22 1.43 1.29 1.20 1.31 1.39 1.46 1.58 1.67 1.76 1.88 2.16 2.79 3.76 5.10 5.73 5.03 4.14 3.93 3.96 4.21 4.59 5.07
1.70 1.79 1.82 1.73 1.62 1.53 1.56 1.58 1.70 1.93 1.62 0.98 0.89 0.94 1.08 1.17 1.35 1.24 1.24 1.45 1.42 1.45 1.52 1.61 1.70 1.77 1.90 2.18 2.71 3.57 4.77 5.44 5.06 4.43 4.22 4.42 4.59 4.82
1.59 1.63 1.65 1.64 1.66 1.57 1.54 1.54 1.51 1.60 1.63 1.07 0.89 0.94 1.14 1.23 1.23 1.20 1.26 1.31 1.32 1.47 1.52 1.55 1.62 1.72 1.90 2.09 2.38 2.82 3.48 4.45 5.14 5.03 4.68 4.56 4.55 4.57
1.54 1.54 1.54 1.56 1.61 1.54 1.50 1.45 1.38 1.33 1.41 1.24 0.98 0.98 1.07 1.15 1.25 1.33 1.32 1.33 1.28 1.43 1.46 1.54 1.67 1.74 1.85 2.05 2.29 2.58 2.94 3.44 4.13 4.67 4.75 4.55 4.42 4.46
1.43 1.46 1.45 1.54 1.62 1.55 1.51 1.43 1.31 1.22 1.23 1.27 1.11 1.01 1.07 1.12 1.30 1.46 1.46 1.47 1.40 1.46 1.50 1.56 1.66 1.77 1.85 1.96 2.19 2.41 2.59 2.75 3.13 3.86 4.43 4.38 4.28 4.24
1.36 1.33 1.36 1.50 1.58 1.63 1.69 1.56 1.45 1.43 1.42 1.45 1.33 1.20 1.20 1.21 1.41 1.67 1.78 1.73 1.64 1.47 1.53 1.58 1.70 1.82 1.86 1.86 1.93 2.05 2.20 2.47 2.79 3.20 3.82 4.20 4.10 4.05
1.31 1.29 1.35 1.51 1.59 1.80 1.98 1.88 1.85 1.93 1.86 1.82 1.68 1.57 1.48 1.51 1.59 1.62 1.81 1.84 1.84 1.66 1.54 1.46 1.48 1.50 1.60 1.73 1.81 1.87 1.99 2.18 2.45 2.77 3.17 3.64 3.95 4.02
1.34 1.28 1.29 1.45 1.50 1.64 1.86 1.98 2.06 2.20 2.28 2.23 2.07 1.88 1.61 1.50 1.53 1.68 1.79 1.99 2.08 1.75 1.65 1.60 1.53 1.62 1.57 1.58 1.81 1.84 1.92 2.09 2.28 2.53 2.82 3.10 3.48 3.87
1.34 1.32 1.32 1.37 1.46 1.42 1.56 1.66 1.71 1.88 2.12 2.26 2.31 1.86 1.59 1.51 1.75 1.95 1.91 1.99 1.95 1.84 1.97 1.95 1.63 1.67 1.60 1.71 1.95 1.87 1.89 2.00 2.13 2.29 2.51 2.76 3.04 3.39
1.35 1.32 1.32 1.33 1.43 1.65 1.61 1.56 1.47 1.50 1.71 1.91 2.19 2.02 1.80 1.83 2.18 2.51 2.60 2.46 2.04 1.82 1.99 2.22 1.74 1.64 1.68 1.80 1.99 1.92 1.84 1.86 1.97 2.12 2.26 2.42 2.62 2.92
1.35 1.32 1.34 1.32 1.60 1.89 1.79 1.62 1.43 1.34 1.46 1.80 2.11 2.26 2.32 2.46 2.70 3.02 3.18 3.01 2.52 1.93 1.87 2.18 1.95 1.74 1.89 2.10 2.17 2.12 1.88 1.81 1.88 2.00 2.06 2.09 2.27 2.56
1.35 1.32 1.47 1.56 1.78 1.91 1.74 1.69 1.78 1.52 1.35 1.43 1.53 1.65 1.72 1.88 2.30 2.58 2.90 3.03 2.64 2.39 1.97 2.11 2.22 2.24 2.55 2.38 2.21 2.05 1.84 1.79 1.82 1.90 1.94 1.92 2.03 2.04
1.39 1.33 1.33 1.62 1.73 1.81 1.84 1.76 2.00 1.88 1.58 1.59 1.56 1.50 1.49 1.59 1.78 2.08 2.50 2.90 2.96 2.63 2.13 2.47 2.77 2.56 2.68 2.51 2.36 2.24 1.87 1.65 1.65 1.79 1.93 1.97 1.99 1.95
1.32 1.19 1.25 1.55 1.64 1.75 1.75 1.84 1.97 1.90 1.68 1.63 1.55 1.47 1.47 1.51 1.59 1.74 2.08 2.38 2.54 2.42 2.09 2.47 3.12 2.86 2.74 2.43 2.31 2.37 2.13 1.82 1.65 1.66 1.76 2.04 2.01 1.94
1.31 1.42 1.49 1.62 1.64 1.55 1.62 1.73 1.72 1.63 1.70 1.71 1.55 1.42 1.42 1.53 1.60 1.66 1.82 2.11 2.29 2.25 2.18 2.29 2.74 2.85 2.88 2.67 2.25 2.20 2.29 2.19 1.88 1.80 1.79 1.80 1.72 1.67
1.51 1.58 1.66 1.64 1.54 1.43 1.47 1.48 1.41 1.51 1.67 1.65 1.50 1.35 1.33 1.47 1.65 1.75 1.86 2.01 2.24 2.26 2.19 2.27 2.56 2.97 2.99 2.47 2.26 2.19 2.08 2.30 2.18 1.98 1.84 1.76 1.60 1.41
1.69 1.76 1.71 1.61 1.57 1.44 1.32 1.25 1.29 1.46 1.59 1.47 1.44 1.41 1.39 1.44 1.53 1.65 1.88 2.03 2.18 2.20 2.24 2.38 2.53 2.76 2.89 2.80 2.65 2.24 1.97 1.93 2.01 2.00 1.94 1.93 1.81 1.56
1.89 1.80 1.58 1.43 1.38 1.33 1.31 1.28 1.22 1.25 1.32 1.39 1.43 1.44 1.44 1.47 1.49 1.51 1.70 1.96 2.11 2.10 2.15 2.29 2.48 2.74 2.93 3.04 2.87 2.43 2.05 1.90 1.97 2.04 2.00 2.08 2.09 1.82
1.78 1.55 1.35 1.26 1.24 1.22 1.21 1.20 1.18 1.11 1.15 1.27 1.32 1.36 1.43 1.48 1.51 1.53 1.59 1.75 1.93 2.04 2.13 2.24 2.43 2.73 2.92 2.95 2.97 2.64 2.35 2.07 2.02 2.21 2.21 2.14 2.14 1.96
1.49 1.40 1.30 1.20 1.18 1.21 1.24 1.23 1.19 1.17 1.20 1.23 1.26 1.27 1.36 1.49 1.53 1.51 1.52 1.66 1.82 1.94 2.03 2.13 2.37 2.70 2.97 2.84 2.86 2.81 2.71 2.43 2.22 2.32 2.34 2.22 2.14 2.11
1.32 1.30 1.25 1.23 1.22 1.23 1.26 1.27 1.28 1.26 1.23 1.24 1.25 1.24 1.26 1.39 1.43 1.37 1.41 1.55 1.74 1.87 1.95 1.94 2.06 2.35 2.62 2.69 2.64 2.56 2.70 2.79 2.49 2.44 2.46 2.48 2.41 2.31
1.23 1.27 1.27 1.26 1.27 1.28 1.29 1.31 1.30 1.26 1.23 1.23 1.21 1.20 1.22 1.28 1.32 1.33 1.40 1.50 1.56 1.67 1.79 1.82 1.90 2.18 2.56 2.82 2.69 2.46 2.53 2.70 2.73 2.57 2.53 2.63 2.85 2.92
1.34 1.32 1.31 1.29 1.28 1.31 1.33 1.31 1.28 1.21 1.15 1.16 1.16 1.16 1.21 1.27 1.25 1.29 1.34 1.42 1.50 1.57 1.67 1.83 1.94 2.11 2.38 2.58 2.68 2.55 2.43 2.47 2.55 2.59 2.76 2.62 2.27 2.13